Cloud_Cover
100 94 92 100 100 95 5 1 1 41 37 49 70 100 100 90 100 83 32 12 13 5 5 5 6 5 14 98 100 98 90 5 3 0 0 0 0 0 0 9 59 1 0
5 91 23 23 24 8 1 13 2 16 3 8 57 90 100 100 100 59 97 100 99 73 80 61 80 100 70 28 100 100 97 86 50 4 0 0 0 0 0 5 3 0 0
98 52 62 50 0 25 11 66 100 63 5 18 86 100 100 92 23 42 100 100 8 5 5 5 5 7 55 76 73 100 80 21 47 5 58 5 0 0 2 48 5 5 0
8 5 0 93 24 0 5 62 76 86 99 100 79 82 6 13 43 100 100 92 100 100 100 93 67 92 32 45 84 60 12 7 5 8 54 97 73 3 0 0 5 28 10
5 3 2 0 0 30 48 91 86 100 100 60 78 51 100 87 21 100 100 85 100 100 100 100 100 100 97 64 5 5 5 5 5 5 5 55 100 85 3 1 5 75 100
1 5 34 4 5 2 2 6 75 100 95 32 53 94 26 5 94 100 85 100 100 100 100 100 100 100 100 100 5 5 5 5 5 5 5 5 27 100 13 4 0 5 30
0 13 100 97 6 27 17 73 100 96 30 56 100 59 43 32 96 100 100 100 100 100 100 100 100 100 100 100 56 5 5 5 91 5 5 5 5 5 14 5 5 2 0
9 100 100 100 100 100 100 100 80 39 92 100 100 98 100 100 94 100 100 100 100 100 100 100 100 100 100 100 57 5 36 24 5 38 81 79 8 5 5 5 5 5 5
100 100 100 100 100 100 100 100 100 99 100 100 100 100 98 89 100 100 100 100 100 100 100 100 99 99 97 97 58 62 87 7 1 4 13 100 98 29 2 1 5 5 5
100 100 100 100 100 100 100 100 100 100 100 100 100 92 99 100 100 100 100 100 100 100 99 68 100 15 9 97 93 5 1 0 0 0 5 58 52 64 98 5 3 3 5
98 96 100 100 100 100 100 100 100 100 100 100 100 100 100 100 100 100 93 100 99 100 100 10 14 94 61 67 98 4 0 0 5 5 5 2 5 5 35 5 5 5 5
53 80 100 100 100 100 100 100 100 100 100 100 100 100 77 76 8 74 94 74 100 71 89 90 100 100 26 74 64 0 1 4 8 94 34 5 6 1 0 1 5 4 2
0 0 74 98 100 100 100 100 100 100 100 100 93 5 74 100 5 5 61 21 100 77 55 100 86 84 67 46 8 4 4 5 24 71 71 88 36 7 4 0 1 5 5
0 0 0 0 6 97 43 63 100 90 82 10 5 86 100 100 5 86 17 3 5 5 9 5 5 84 93 100 100 100 100 100 80 100 97 100 83 75 27 5 5 2 5
0 0 0 0 0 0 0 0 1 5 4 0 30 98 56 3 0 1 21 5 5 52 56 5 6 71 93 100 94 100 100 100 100 100 100 100 100 86 5 5 4 22 11
3 0 0 0 0 0 0 0 0 0 0 0 0 4 0 1 2 1 0 1 4 3 5 5 5 44 99 85 100 100 100 100 100 100 100 96 100 100 78 32 75 50 60
5 9 5 15 2 4 4 0 0 4 4 2 0 1 0 5 5 5 5 0 0 5 68 90 100 99 38 100 100 100 100 100 100 100 100 100 100 100 100 100 92 100 59
5 5 6 5 3 5 5 2 0 0 4 5 4 5 22 5 5 5 3 6 5 5 100 99 64 92 96 100 100 100 100 100 100 100 100 99 100 100 100 100 100 100 100
14 31 45 66 12 12 64 95 25 62 75 83 58 29 32 5 4 5 13 92 7 98 71 100 58 36 48 93 94 93 100 100 100 100 99 100 99 100 100 100 100 100 100
90 81 15 100 100 100 100 100 100 100 100 75 25 26 56 34 100 100 100 100 94 90 83 90 74 86 52 70 100 100 98 90 79 47 100 80 99 66 96 100 100 100 100
94 100 88 93 99 100 100 100 100 100 100 100 100 100 90 100 100 100 100 100 94 5 6 80 50 98 100 89 92 100 86 92 67 38 99 88 100 100 90 100 100 99 82
5 45 68 82 5 79 82 99 83 90 90 77 66 100 100 97 19 94 95 6 5 5 5 45 74 69 6 66 61 65 99 56 42 67 100 100 98 100 100 96 99 70 7
100 53 90 29 9 21 17 4 4 2 3 25 99 100 84 56 100 5 5 5 13 14 82 51 95 100 87 94 84 42 33 64 86 100 100 100 94 78 99 100 87 63 9
100 100 100 100 100 74 81 85 84 74 73 15 74 48 64 52 25 58 11 44 76 100 100 100 100 100 95 100 78 99 92 100 100 100 97 99 99 94 68 72 48 40 45
100 100 100 100 100 100 100 100 92 93 86 70 90 78 98 89 99 93 61 75 83 51 100 100 100 100 100 100 100 100 100 100 100 99 59 88 100 100 100 100 100 99 63
100 100 100 100 96 100 100 100 100 100 100 100 100 100 100 100 100 100 100 60 70 91 99 100 100 100 100 100 100 100 100 100 100 100 98 79 100 100 73 78 100 100 100